Torna al catalogo

COSMOS 2011

AttivoComunicazioniLEO
NORAD 19905·PAYLOAD·🇷🇺 Russia

Lanciato Mar 24, 1989 da Plesetsk Cosmodrome

Loading…

Prossimi Passaggi (prossime 24 ore)

TLE

AggiornatoSource: Space-Track

Epoca: Sep 14, 2026, 14:39 UTC

1 19905U 89025D   26257.61079225 -.00000008  00000-0  50872-4 0  9997
2 19905  74.0075 111.2296 0021006   4.0904  10.0224 12.52212476713111

Traccia COSMOS 2011 in tempo reale con AllMySat

Download on the App Store